OPS 4682 DEB, 38393

Orbit data source: Space-Track

OPS 4682 DEB, 38393 is space debris in LEO originally from a launch on Sat, 03 Apr 1965 UTC launched from the Air Force Western Test Range (AFWTR). Debris objects in space refer to the collection of defunct objects orbiting the Earth. Examples of debris include non-operational satellites, rocket bodies, and fragments generated from explosions, collisions, or faulty payload assembly.

Loading next visibility...
Identifier
38393, 1965-027CW
Orbit
LEO
Country
Flag of USUS
Related business
Manufacturer
Unknown
Mission
Spacecraft
Bus & Motor
Unknown
Mass
Unknown
Launch date (UTC)
1965-04-03 (61 years ago)
Launch vehicle
Unknown
Launch site
Air Force Western Test Range (AFWTR)
Object type
Payload
Rocket body
Debris
Shape & HBR
Unknown shape, 0.1 m
Radar Cross Section
Small (<0.1 m²)

Expand to show TLE details & history
Last TLE update: 9 hours ago

TLE from 9 hours ago
0 OPS 4682 DEB
1 38393U 65027CW  26036.19374610 -.00000348  00000-0 -12065-2 0  9997
2 38393  90.2520  13.7060 0026167   8.1670 351.9872 12.98378182608690
Epoch: 2026-02-05T04:38Z
TLE epoch observation values (Epoch: 2026-02-05T04:38:59.663Z)
Latitude
Longitude
168.60792°
Altitude
1,251.513 km
Speed
7.239 km/s
True Right ascension
00h 54m 49s
True Declination
0° 00' 00"
Sunlit
Object was in daylight at epoch
Visualization orbit readout
Latitude
Unknown
Longitude
Unknown
Altitude
Unknown
Speed
Unknown
Apparent Right ascension
Unknown
Apparent Declination
Unknown
Sunlit
N/A
Visualization observer readout
Local Sidereal Time
15:20:47
Azimuth
Unknown
Elevation
Unknown
Doppler factor
Unknown
Orbital elements
Apogee altitude
1,285.578 km
Perigee altitude
1,245.576 km
Semi-major axis
7,643.714 km
Eccentricity
0.00262
Inclination
90.252°
RAAN
13.706°
Arg. of periapsis
8.167°
True anomaly
351.94527°
Mean anomaly
351.9872°
Eccentric anomaly
351.96625°
Mean motion
3.24778 °/min
Orbital period
110.84 mins
BSTAR
-0.0012065
Loading maneuver chart data...
Computing Atmospheric mass density...
Loading historical data...
Loading historical data...
Loading historical data...
Loading historical data...
Loading historical data...
Loading historical data...
Loading historical data...

Documentation

Showing up to 5 results
|